DW2217 Weather Reports


time (UTC)temp
C
wind
direction
speed
KPH
gust
KPH
rain 1hr
cm
rain 24hr
cm
rain mn
cm
humidity
%
barometer
mb
20260902204423 18 125 0.0 0.0 0.00 0.00 0.00 78 1021.6
20260902203918 18 125 0.0 3.2 0.00 0.00 0.00 78 1021.7
20260902203414 18 125 1.6 3.2 0.00 0.00 0.00 77 1022.0
20260902202913 18 125 0.0 0.0 0.00 0.00 0.00 78 1021.9
20260902202409 18 125 0.0 3.2 0.00 0.00 0.00 77 1021.9
20260902201905 18 125 0.0 3.2 0.00 0.00 0.00 77 1021.9
20260902201405 18 125 0.0 3.2 0.00 0.00 0.00 77 1021.9
20260902200900 18 125 3.2 3.2 0.00 0.00 0.00 76 1022.2
20260902200355 18 127 3.2 3.2 0.00 0.00 0.00 75 1021.6
20260902195850 18 118 0.0 3.2 0.00 0.00 0.00 76 1021.7
20260902195349 18 118 0.0 3.2 0.00 0.00 0.00 75 1021.9
20260902194844 18 119 3.2 3.2 0.00 0.00 0.00 75 1021.9
20260902194339 18 119 0.0 3.2 0.00 0.00 0.00 75 1021.8
20260902193835 18 117 0.0 3.2 0.00 0.00 0.00 75 1022.0
20260902193331 18 115 0.0 3.2 0.00 0.00 0.00 76 1022.2
20260902192829 18 103 3.2 3.2 0.00 0.00 0.00 75 1022.1
20260902192327 19 103 0.0 3.2 0.00 0.00 0.00 73 1022.2
20260902191822 19 103 1.6 3.2 0.00 0.00 0.00 74 1022.2
20260902191318 18 107 0.0 3.2 0.00 0.00 0.00 73 1022.2
20260902190813 18 101 0.0 3.2 0.00 0.00 0.00 73 1022.1
20260902190312 18 102 1.6 3.2 0.00 0.00 0.00 73 1022.2
20260902185809 18 102 1.6 3.2 0.00 0.00 0.00 72 1022.4
20260902185306 18 102 1.6 3.2 0.00 0.00 0.00 73 1022.2
20260902184759 18 102 1.6 3.2 0.00 0.00 0.00 73 1022.4
20260902184255 18 106 0.0 3.2 0.00 0.00 0.00 73 1022.5
20260902183750 18 107 0.0 3.2 0.00 0.00 0.00 73 1022.5
20260902183246 18 107 1.6 3.2 0.00 0.00 0.00 72 1022.4
20260902182742 19 109 0.0 3.2 0.00 0.00 0.00 73 1022.6
20260902182238 18 105 0.0 3.2 0.00 0.00 0.00 74 1022.3
20260902181735 18 107 3.2 3.2 0.00 0.00 0.00 74 1022.4
20260902181234 18 135 1.6 3.2 0.00 0.00 0.00 73 1022.4
20260902180729 18 139 3.2 3.2 0.00 0.00 0.00 72 1022.5
20260902180224 18 115 3.2 3.2 0.00 0.00 0.00 72 1022.6
20260902175719 18 166 3.2 4.8 0.00 0.00 0.00 73 1022.6
20260902175215 18 139 0.0 3.2 0.00 0.00 0.00 73 1022.6
20260902174711 18 203 3.2 4.8 0.00 0.00 0.00 73 1022.6
20260902174207 18 132 0.0 3.2 0.00 0.00 0.00 73 1022.5
20260902173702 18 127 0.0 4.8 0.00 0.00 0.00 74 1022.4
20260902173156 18 139 0.0 3.2 0.00 0.00 0.00 73 1022.6
20260902172651 18 144 1.6 3.2 0.00 0.00 0.00 72 1022.7
20260902172150 19 106 0.0 0.0 0.00 0.00 0.00 71 1022.7
20260902171645 19 106 0.0 3.2 0.00 0.00 0.00 71 1022.4
20260902171141 19 114 0.0 3.2 0.00 0.00 0.00 71 1022.3
20260902170637 19 126 0.0 3.2 0.00 0.00 0.00 70 1022.4
20260902170132 18 105 1.6 3.2 0.00 0.00 0.00 71 1022.3
20260902165627 18 113 3.2 3.2 0.00 0.00 0.00 71 1022.3
20260902165127 18 103 1.6 3.2 0.00 0.00 0.00 71 1022.2
20260902164622 18 103 0.0 3.2 0.00 0.00 0.00 71 1022.3
20260902164121 18 103 3.2 3.2 0.00 0.00 0.00 70 1022.4
20260902163616 18 103 0.0 3.2 0.00 0.00 0.00 70 1022.5
20260902163115 18 103 1.6 3.2 0.00 0.00 0.00 68 1022.7
20260902162614 18 102 0.0 3.2 0.00 0.00 0.00 68 1022.7
20260902162109 18 103 0.0 3.2 0.00 0.00 0.00 67 1022.7
20260902161605 18 99 0.0 3.2 0.00 0.00 0.00 69 1022.9
20260902161100 18 98 1.6 3.2 0.00 0.00 0.00 71 1022.8
20260902160550 18 96 0.0 3.2 0.00 0.00 0.00 76 1022.9
20260902160045 18 96 0.0 3.2 0.00 0.00 0.00 77 1022.8
20260902155538 18 103 1.6 3.2 0.00 0.00 0.00 79 1022.9
20260902155037 18 98 1.6 3.2 0.00 0.00 0.00 81 1022.9
20260902154533 18 136 0.0 4.8 0.00 0.00 0.00 82 1022.9
20260902154027 19 200 4.8 4.8 0.00 0.00 0.00 82 1023.1
20260902153526 19 114 0.0 4.8 0.00 0.00 0.00 82 1023.1
20260902153022 19 100 1.6 3.2 0.00 0.00 0.00 82 1023.1
20260902152518 19 101 1.6 3.2 0.00 0.00 0.00 81 1023.1
20260902152013 19 94 0.0 3.2 0.00 0.00 0.00 82 1022.9
20260902151509 18 167 3.2 4.8 0.00 0.00 0.00 82 1022.8
20260902151008 18 108 0.0 3.2 0.00 0.00 0.00 83 1022.8
20260902150504 18 121 0.0 4.8 0.00 0.00 0.00 84 1022.9
20260902150004 18 134 1.6 3.2 0.00 0.00 0.00 84 1023.0
20260902145459 18 103 0.0 3.2 0.00 0.00 0.00 84 1022.8
20260902144953 18 104 0.0 3.2 0.00 0.00 0.00 84 1022.6
20260902144449 18 131 0.0 3.2 0.00 0.00 0.00 85 1022.8
20260902143944 18 95 0.0 0.0 0.00 0.00 0.00 85 1022.7
20260902143440 18 95 0.0 0.0 0.00 0.00 0.00 85 1022.9
20260902142935 18 118 0.0 3.2 0.00 0.00 0.00 85 1022.7
20260902142431 18 100 0.0 3.2 0.00 0.00 0.00 86 1022.7
20260902141926 18 92 1.6 3.2 0.00 0.00 0.00 85 1023.0
20260902141421 18 102 0.0 3.2 0.00 0.00 0.00 84 1022.7
20260902140920 18 85 0.0 3.2 0.00 0.00 0.00 85 1022.7
20260902140416 17 83 0.0 3.2 0.00 0.00 0.00 86 1022.7
20260902135915 17 98 0.0 0.0 0.00 0.00 0.00 86 1022.5
20260902135412 17 99 0.0 3.2 0.00 0.00 0.00 87 1022.8
20260902134910 17 89 0.0 3.2 0.00 0.00 0.00 87 1022.6
20260902134407 17 87 0.0 3.2 0.00 0.00 0.00 88 1022.6
20260902133907 17 86 0.0 3.2 0.00 0.00 0.00 88 1022.6
20260902133401 17 86 0.0 3.2 0.00 0.00 0.00 90 1022.7
20260902132856 17 86 0.0 0.0 0.00 0.00 0.00 92 1022.5
20260902132351 16 86 0.0 0.0 0.00 0.00 0.00 92 1022.8
20260902131846 16 87 0.0 3.2 0.00 0.00 0.00 93 1022.6
20260902131343 16 87 0.0 0.0 0.00 0.00 0.00 93 1022.7
20260902130842 16 87 0.0 3.2 0.00 0.00 0.00 93 1022.7
20260902130338 16 87 0.0 3.2 0.00 0.00 0.00 94 1022.8
20260902125833 16 86 0.0 0.0 0.00 0.00 0.00 94 1022.6
20260902125329 16 86 0.0 3.2 0.00 0.00 0.00 94 1022.8
20260902124825 16 85 0.0 0.0 0.00 0.00 0.00 93 1022.6
20260902124321 16 84 0.0 3.2 0.00 0.00 0.00 93 1022.5
20260902123815 16 85 1.6 3.2 0.00 0.00 0.00 92 1022.5
20260902123312 16 71 0.0 0.0 0.00 0.00 0.00 92 1022.6
20260902122810 16 95 0.0 3.2 0.00 0.00 0.00 92 1022.6
20260902122307 16 82 0.0 3.2 0.00 0.00 0.00 92 1022.5
20260902121806 16 71 0.0 3.2 0.00 0.00 0.00 92 1022.7
20260902121301 16 70 0.0 3.2 0.00 0.00 0.00 93 1022.5
20260902120751 16 70 0.0 0.0 0.00 0.00 0.00 93 1022.8
20260902120247 16 70 3.2 3.2 0.00 0.00 0.00 94 1022.8
20260902115741 16 62 0.0 0.0 0.00 0.00 0.00 95 1022.9
20260902115238 16 68 0.0 0.0 0.00 0.00 0.00 94 1022.7
20260902114733 16 68 0.0 0.0 0.00 0.00 0.00 95 1022.8
20260902114230 16 66 0.0 0.0 0.00 0.00 0.00 95 1022.7
20260902113724 16 66 0.0 0.0 0.00 0.00 0.00 95 1022.6
20260902113220 16 66 0.0 0.0 0.00 0.00 0.00 95 1022.7
20260902112719 16 54 0.0 3.2 0.00 0.00 0.00 95 1022.7
20260902112216 16 47 0.0 0.0 0.00 0.00 0.00 96 1022.6
20260902111711 16 199 3.2 3.2 0.00 0.00 0.00 96 1022.4
20260902111207 16 78 0.0 0.0 0.00 0.00 0.00 96 1022.5
20260902110703 15 77 0.0 0.0 0.00 0.00 0.00 96 1022.4
20260902110159 15 30 0.0 3.2 0.00 0.00 0.00 97 1022.4
20260902105658 15 89 0.0 0.0 0.00 0.00 0.00 97 1022.3
20260902105154 15 89 0.0 0.0 0.00 0.00 0.00 97 1022.2
20260902104649 15 87 0.0 3.2 0.00 0.00 0.00 97 1022.1
20260902104144 15 81 0.0 0.0 0.00 0.00 0.00 97 1022.0
20260902103643 15 79 0.0 0.0 0.00 0.00 0.00 97 1022.2
20260902103139 15 79 0.0 3.2 0.00 0.00 0.00 97 1022.1
20260902102635 15 151 3.2 3.2 0.00 0.00 0.00 97 1022.1
20260902102132 15 31 0.0 0.0 0.00 0.00 0.00 97 1022.2
20260902101627 15 31 0.0 3.2 0.00 0.00 0.00 97 1022.1
20260902101126 15 32 1.6 3.2 0.00 0.00 0.00 97 1021.8
20260902100621 15 34 0.0 0.0 0.00 0.00 0.00 97 1021.9
20260902100116 15 34 0.0 3.2 0.00 0.00 0.00 97 1021.8
20260902095615 15 40 0.0 0.0 0.00 0.00 0.00 97 1021.8
20260902095109 15 42 0.0 0.0 0.00 0.00 0.00 96 1021.8
20260902094604 15 43 0.0 0.0 0.00 0.00 0.00 96 1021.7
20260902094101 15 40 1.6 3.2 0.00 0.00 0.00 96 1021.6
20260902093559 15 49 0.0 0.0 0.00 0.00 0.00 96 1021.5
20260902093054 15 49 0.0 0.0 0.00 0.00 0.00 96 1021.6
20260902092549 15 49 0.0 0.0 0.00 0.00 0.00 96 1021.7
20260902092044 16 49 0.0 0.0 0.00 0.00 0.00 96 1021.7
20260902091539 16 49 0.0 3.2 0.00 0.00 0.00 96 1021.7
20260902091036 16 49 0.0 0.0 0.00 0.00 0.00 96 1021.8
20260902090531 16 49 0.0 0.0 0.00 0.00 0.00 96 1021.8
20260902090030 16 49 0.0 3.2 0.00 0.00 0.00 96 1021.8
20260902085525 16 49 0.0 3.2 0.00 0.00 0.00 96 1021.9
20260902085020 16 49 0.0 0.0 0.00 0.00 0.00 96 1021.8
20260902084516 16 49 0.0 3.2 0.00 0.00 0.00 96 1021.9
20260902084011 16 49 0.0 0.0 0.00 0.00 0.00 96 1021.7
20260902083507 16 49 0.0 0.0 0.00 0.00 0.00 96 1021.8
20260902083001 16 49 0.0 0.0 0.00 0.00 0.00 96 1021.8
20260902082456 16 49 0.0 0.0 0.00 0.00 0.00 96 1021.6
20260902081953 16 49 0.0 3.2 0.00 0.00 0.00 96 1021.8
20260902081449 16 49 3.2 3.2 0.00 0.00 0.00 96 1021.6
20260902080943 16 48 0.0 0.0 0.00 0.00 0.00 95 1021.7
20260902080439 16 48 0.0 0.0 0.00 0.00 0.00 95 1021.8
20260902075933 16 48 0.0 3.2 0.00 0.00 0.00 95 1021.7
20260902075429 16 49 0.0 0.0 0.00 0.00 0.00 95 1021.5
20260902074924 16 50 0.0 0.0 0.00 0.00 0.00 95 1021.5
20260902074420 16 50 0.0 0.0 0.00 0.00 0.00 95 1021.4
20260902073915 16 49 0.0 0.0 0.00 0.00 0.00 94 1021.5
20260902073411 16 49 0.0 0.0 0.00 0.00 0.00 95 1021.3
20260902072907 16 48 0.0 3.2 0.00 0.00 0.00 95 1021.3
20260902072403 16 48 0.0 0.0 0.00 0.00 0.00 95 1021.1
20260902071859 16 49 0.0 0.0 0.00 0.00 0.00 95 1021.3
20260902071358 16 46 0.0 3.2 0.00 0.00 0.00 95 1021.4
20260902070855 16 45 0.0 0.0 0.00 0.00 0.00 96 1021.2
20260902070350 16 43 0.0 0.0 0.00 0.00 0.00 96 1021.1
20260902065849 16 43 0.0 3.2 0.00 0.00 0.00 96 1021.2
20260902065344 16 98 0.0 0.0 0.00 0.00 0.00 96 1021.2
20260902064839 16 39 0.0 3.2 0.00 0.00 0.00 96 1021.3
20260902064335 16 37 1.6 3.2 0.00 0.00 0.00 96 1021.3
20260902063830 16 44 0.0 0.0 0.00 0.00 0.00 96 1021.3
20260902063325 16 44 0.0 0.0 0.00 0.00 0.00 96 1021.4
20260902062819 16 44 0.0 0.0 0.00 0.00 0.00 96 1021.2
20260902062314 16 44 0.0 0.0 0.00 0.00 0.00 96 1021.2
20260902061813 16 44 0.0 0.0 0.00 0.00 0.00 96 1021.1
20260902061309 16 44 0.0 0.0 0.00 0.00 0.00 96 1021.0
20260902060805 16 44 0.0 0.0 0.00 0.00 0.00 96 1021.1
20260902060301 16 42 1.6 3.2 0.00 0.00 0.00 96 1021.2
20260902055755 16 52 3.2 3.2 0.00 0.00 0.00 96 1021.3
20260902055247 16 53 0.0 0.0 0.00 0.00 0.00 95 1021.0
20260902054747 16 52 0.0 0.0 0.00 0.00 0.00 95 1020.7
20260902054243 16 52 1.6 3.2 0.00 0.00 0.00 95 1021.0
20260902053737 16 52 0.0 3.2 0.00 0.00 0.00 95 1021.1
20260902053236 16 53 0.0 0.0 0.00 0.00 0.00 95 1021.0
20260902052731 16 52 0.0 0.0 0.00 0.00 0.00 95 1021.0
20260902052227 16 52 0.0 3.2 0.00 0.00 0.00 95 1021.0
20260902051726 16 52 0.0 0.0 0.00 0.00 0.00 95 1020.8
20260902051220 16 53 0.0 0.0 0.00 0.00 0.00 95 1020.8
20260902050715 16 53 0.0 0.0 0.00 0.00 0.00 95 1020.6
20260902050210 16 53 0.0 0.0 0.00 0.00 0.00 95 1020.4
20260902045705 16 53 0.0 0.0 0.00 0.00 0.00 94 1020.6
20260902045201 17 53 0.0 0.0 0.00 0.00 0.00 94 1020.3
20260902044656 17 53 0.0 0.0 0.00 0.00 0.00 94 1020.2
20260902044152 17 53 0.0 0.0 0.00 0.00 0.00 93 1020.1
20260902043647 17 53 0.0 3.2 0.00 0.00 0.00 93 1020.2
20260902043142 17 73 0.0 0.0 0.00 0.00 0.00 93 1020.2
20260902042641 17 71 0.0 3.2 0.00 0.00 0.00 93 1020.1
20260902042137 17 59 0.0 3.2 0.00 0.00 0.00 93 1020.1
20260902041636 17 59 0.0 0.0 0.00 0.00 0.00 93 1020.4
20260902041137 17 59 0.0 0.0 0.00 0.00 0.00 93 1020.1
20260902040631 17 60 0.0 0.0 0.00 0.00 0.00 93 1020.3
20260902040126 17 62 0.0 0.0 0.00 0.00 0.00 93 1020.2
20260902035624 17 95 0.0 0.0 0.00 0.00 0.00 93 1019.9
20260902035120 17 95 0.0 0.0 0.00 0.00 0.00 92 1020.0
20260902034619 17 95 0.0 0.0 0.00 0.00 0.00 92 1020.0
20260902034113 17 95 0.0 0.0 0.00 0.00 0.00 93 1020.0
20260902033612 17 95 0.0 0.0 0.00 0.00 0.00 93 1020.0
20260902033108 17 95 0.0 0.0 0.00 0.00 0.00 93 1020.1
20260902032606 17 95 0.0 0.0 0.00 0.00 0.00 92 1020.0
20260902032101 17 95 0.0 0.0 0.00 0.00 0.00 92 1020.2
20260902031555 17 95 0.0 3.2 0.00 0.00 0.00 92 1020.0
20260902031052 17 95 0.0 0.0 0.00 0.00 0.00 93 1019.8
20260902030551 17 95 0.0 0.0 0.00 0.00 0.00 93 1020.0
20260902030045 17 95 0.0 0.0 0.00 0.00 0.00 93 1020.1
20260902025540 17 95 0.0 0.0 0.00 0.00 0.00 92 1019.8
20260902025036 17 95 0.0 0.0 0.00 0.00 0.00 93 1019.7
20260902024531 17 95 0.0 3.2 0.00 0.00 0.00 93 1019.7
20260902024031 17 95 0.0 0.0 0.00 0.00 0.00 93 1019.5
20260902023527 17 95 0.0 3.2 0.00 0.00 0.00 93 1019.4
20260902023022 17 95 0.0 0.0 0.00 0.00 0.00 93 1019.6
20260902022516 17 95 0.0 3.2 0.00 0.00 0.00 93 1019.7
20260902022012 17 95 0.0 0.0 0.00 0.00 0.00 93 1019.4
20260902021507 17 95 0.0 0.0 0.00 0.00 0.00 93 1019.7
20260902021002 17 95 0.0 0.0 0.00 0.00 0.00 93 1019.7
20260902020458 17 95 0.0 0.0 0.00 0.00 0.00 93 1019.7
20260902015954 17 95 0.0 0.0 0.00 0.00 0.00 93 1019.8
20260902015449 17 95 0.0 3.2 0.00 0.00 0.00 93 1019.9
20260902014944 17 96 0.0 0.0 0.00 0.00 0.00 93 1019.8
20260902014441 17 96 0.0 0.0 0.00 0.00 0.00 93 1019.8
20260902013940 17 96 0.0 3.2 0.00 0.00 0.00 93 1019.9
20260902013436 17 96 1.6 3.2 0.00 0.00 0.00 92 1019.5
20260902012931 17 96 1.6 3.2 0.00 0.00 0.00 92 1019.5
20260902012426 17 96 1.6 3.2 0.00 0.00 0.00 92 1019.8
20260902011922 17 96 0.0 0.0 0.00 0.00 0.00 92 1019.9
20260902011417 17 96 0.0 0.0 0.00 0.00 0.00 92 1019.7
20260902010916 17 96 1.6 3.2 0.00 0.00 0.00 92 1019.8
20260902010411 17 96 0.0 0.0 0.00 0.00 0.00 92 1019.9
20260902005910 17 96 0.0 3.2 0.00 0.00 0.00 92 1020.0
20260902005404 17 96 0.0 3.2 0.00 0.00 0.00 92 1019.7
20260902004900 17 96 0.0 3.2 0.00 0.00 0.00 91 1019.7
20260902004400 17 96 0.0 3.2 0.00 0.00 0.00 91 1019.6
20260902003855 17 96 1.6 3.2 0.00 0.00 0.00 92 1019.5
20260902003350 17 96 1.6 3.2 0.00 0.00 0.00 92 1019.5
20260902002846 17 96 1.6 3.2 0.00 0.00 0.00 92 1019.4
20260902002345 17 96 0.0 3.2 0.00 0.00 0.00 92 1019.4
20260902001840 17 96 3.2 3.2 0.00 0.00 0.00 91 1019.3
20260902001336 17 96 0.0 3.2 0.00 0.00 0.00 91 1019.2
20260902000830 17 96 0.0 3.2 0.00 0.00 0.00 91 1019.3
20260902000330 18 96 0.0 3.2 0.00 0.00 0.00 91 1019.2
20260901235825 18 96 0.0 3.2 0.00 0.00 0.00 90 1019.1
20260901235325 18 96 1.6 3.2 0.00 0.00 0.00 90 1019.1
20260901234820 18 96 0.0 3.2 0.00 0.00 0.00 90 1018.8
20260901234314 18 96 0.0 3.2 0.00 0.00 0.00 90 1019.0
20260901233810 18 96 0.0 3.2 0.00 0.00 0.00 90 1019.0
20260901233305 18 96 0.0 3.2 0.00 0.00 0.00 90 1018.9
20260901232801 18 96 1.6 3.2 0.00 0.00 0.00 90 1019.0
20260901232255 18 96 3.2 3.2 0.00 0.00 0.00 89 1019.2
20260901231752 18 99 3.2 3.2 0.00 0.00 0.00 89 1019.1
20260901231248 18 99 3.2 3.2 0.00 0.00 0.00 88 1019.2
20260901230744 18 99 3.2 3.2 0.00 0.00 0.00 88 1019.0
20260901230243 18 99 1.6 3.2 0.00 0.00 0.00 87 1019.0
20260901225738 18 99 3.2 3.2 0.00 0.00 0.00 86 1019.0
20260901225233 18 99 3.2 3.2 0.00 0.00 0.00 86 1018.8
20260901224729 19 99 3.2 3.2 0.00 0.00 0.00 86 1018.7
20260901224225 19 99 3.2 3.2 0.00 0.00 0.00 85 1018.5
20260901223721 19 99 3.2 4.8 0.00 0.00 0.00 84 1018.6
20260901223215 19 100 1.6 3.2 0.00 0.00 0.00 84 1018.6
20260901222711 20 100 3.2 3.2 0.00 0.00 0.00 83 1018.7
20260901222208 20 100 1.6 3.2 0.00 0.00 0.00 83 1018.6
20260901221703 20 100 3.2 3.2 0.00 0.00 0.00 82 1018.7
20260901221159 20 100 1.6 3.2 0.00 0.00 0.00 82 1018.7
20260901220658 20 100 1.6 3.2 0.00 0.00 0.00 82 1018.5
20260901220157 20 100 1.6 3.2 0.00 0.00 0.00 82 1018.5
20260901215655 20 105 0.0 3.2 0.00 0.00 0.00 82 1018.5
20260901215145 20 107 3.2 3.2 0.00 0.00 0.00 82 1018.3
20260901214642 20 108 0.0 3.2 0.00 0.00 0.00 82 1018.4
20260901214136 20 99 1.6 3.2 0.00 0.00 0.00 81 1018.4
20260901213631 21 117 1.6 4.8 0.00 0.00 0.00 80 1018.1
20260901213126 21 110 3.2 3.2 0.00 0.00 0.00 80 1018.1
20260901212626 21 103 1.6 3.2 0.00 0.00 0.00 80 1018.1
20260901212122 21 111 3.2 3.2 0.00 0.00 0.00 79 1018.1
20260901211616 21 101 3.2 3.2 0.00 0.00 0.00 78 1018.2
20260901211113 21 109 0.0 3.2 0.00 0.00 0.00 76 1017.8
20260901210608 21 98 3.2 3.2 0.00 0.00 0.00 75 1018.1
20260901210104 21 97 1.6 4.8 0.00 0.00 0.00 74 1017.8
20260901205559 21 95 3.2 4.8 0.00 0.00 0.00 74 1017.9
20260901205054 21 96 3.2 4.8 0.00 0.00 0.00 73 1017.8